Wind_Speed
47 46 45 43 42 42 43 43 43 43 42 40 38 37 36 37 37 38 37 36 35 34 34 34 35 35 36 36 37 38 38 38 39 40 42 43 44 46 47 49 50 51 51
49 48 47 46 44 43 43 43 43 43 43 42 40 38 37 37 38 38 37 37 36 35 36 36 36 37 38 38 39 40 40 40 41 42 44 46 47 48 50 51 52 53 54
50 49 49 48 46 44 43 44 43 43 43 43 42 40 38 38 38 37 37 37 37 37 38 38 38 39 40 41 42 42 42 43 44 45 46 48 49 50 50 53 54 56 57
51 51 50 49 47 45 44 44 43 43 43 43 42 41 39 38 37 37 37 37 37 38 38 39 40 41 42 43 43 44 45 45 46 47 49 50 52 53 52 52 54 56 58
53 52 51 50 49 47 46 45 44 43 43 43 42 41 39 37 37 37 37 37 38 38 39 40 41 42 43 44 45 45 46 47 49 50 51 52 54 55 57 55 56 57 59
54 53 53 52 51 49 48 46 44 42 42 42 41 40 39 38 37 37 37 38 38 39 40 41 42 43 44 45 46 47 48 49 51 52 54 55 56 58 59 60 60 61 61
54 54 53 53 52 49 48 46 43 42 42 41 40 40 39 38 37 38 38 38 38 39 40 42 42 43 44 45 46 47 49 51 52 54 56 57 59 61 63 65 66 66 66
55 54 53 53 53 51 48 46 44 42 42 41 40 40 39 38 37 38 38 38 39 40 41 42 43 44 45 46 47 48 50 52 54 56 58 60 61 63 65 67 69 70 69
54 55 54 53 52 51 49 46 44 43 42 41 40 40 39 38 37 38 38 39 40 40 41 42 43 44 45 46 47 49 52 54 56 58 60 62 64 66 68 69 71 72 73
54 55 55 53 52 51 49 47 45 44 43 42 41 40 38 37 37 37 38 39 39 40 41 42 43 44 44 46 48 51 53 56 58 60 62 65 66 68 69 71 72 73 75
51 54 55 53 51 50 48 46 45 44 43 42 41 39 38 37 37 38 38 39 40 40 41 42 42 43 45 47 50 53 55 58 60 62 64 66 68 69 70 72 73 74 76
48 51 52 51 50 48 47 46 45 44 43 42 40 39 38 38 38 38 38 39 40 40 41 41 42 44 46 49 52 55 57 60 62 64 66 67 69 70 72 73 75 77 80
44 48 49 49 48 46 45 45 45 44 42 41 40 39 38 38 38 38 38 39 39 40 40 41 43 45 48 51 54 56 59 61 64 65 67 68 69 71 73 75 78 81 86
41 46 47 46 45 44 44 44 43 42 41 40 39 38 38 37 38 38 38 39 39 39 40 42 44 47 50 53 55 58 60 63 64 66 67 69 70 72 75 78 83 87 92
35 41 42 42 41 40 41 42 42 41 40 39 38 37 37 37 37 37 37 37 38 39 41 43 46 49 52 55 57 60 61 63 65 66 68 70 72 75 79 84 89 94 98
31 35 37 37 37 37 38 39 39 38 37 36 36 35 35 35 36 36 36 37 38 40 42 45 48 51 54 56 59 61 62 64 65 67 69 72 75 80 84 90 95 98 99
28 31 32 33 34 34 34 35 35 34 34 33 33 33 33 34 34 34 35 37 39 41 44 47 50 53 55 58 60 61 63 64 67 69 72 76 80 85 90 94 96 95 92
24 26 27 28 29 29 30 30 30 30 30 30 30 31 31 31 32 33 35 37 40 43 46 49 51 54 56 58 60 61 63 65 68 72 76 81 86 91 94 94 92 87 80
21 22 23 23 24 25 25 25 26 26 26 27 27 27 28 29 31 33 36 38 41 44 47 50 52 54 57 58 60 62 64 67 71 76 81 86 90 93 93 90 84 75 65
18 19 19 20 20 21 21 22 22 23 23 23 24 25 27 29 31 34 37 40 43 45 48 50 53 55 56 58 60 63 67 70 75 81 86 90 92 91 87 81 71 60 51
14 14 15 16 16 17 18 18 19 19 20 21 22 24 27 29 32 35 38 41 43 46 48 51 53 55 56 59 62 66 71 76 81 85 89 90 88 84 76 67 57 48 42
12 12 12 12 13 13 14 14 15 17 18 20 23 25 28 31 34 36 39 41 44 46 49 51 53 55 57 61 66 71 76 81 85 88 88 86 80 72 62 53 45 40 37
9 9 9 9 9 10 11 13 14 16 19 21 24 26 29 31 34 36 39 42 44 47 48 50 52 56 60 65 70 75 80 84 87 86 83 76 67 57 48 42 38 35 33
5 6 6 7 8 9 11 13 15 17 19 22 24 27 29 32 35 37 40 42 44 46 48 50 54 58 64 69 74 78 83 85 84 80 72 62 52 43 38 34 32 31 32
4 5 6 7 8 10 11 13 16 18 21 23 25 28 30 33 36 38 41 42 44 46 49 53 57 63 68 73 78 83 85 84 78 69 58 47 39 34 31 30 30 31 32
5 5 6 7 9 10 13 15 17 20 22 24 27 29 32 34 37 39 40 42 45 48 52 57 63 68 73 78 82 85 83 76 65 53 43 36 31 29 28 29 30 31 31
Wind_Direction
252 250 249 246 245 245 245 245 244 245 248 250 252 253 255 257 258 259 260 259 258 258 257 258 261 265 269 274 278 281 285 287 289 289 290 291 292 293 294 294 294 293 293
251 249 248 246 244 244 245 246 245 244 246 247 250 252 255 256 258 260 260 260 260 259 259 259 263 267 271 275 278 281 284 287 288 289 290 292 293 294 295 295 295 294 293
249 247 246 245 243 242 243 245 245 244 245 247 249 251 253 255 257 258 259 259 260 259 260 261 264 269 272 276 278 281 284 286 288 289 290 291 292 293 295 296 296 295 295
248 245 244 243 241 241 241 243 244 244 245 247 248 250 252 254 255 256 257 259 260 260 261 264 267 270 274 277 279 282 285 287 288 290 291 292 294 294 294 293 293 293 294
247 243 241 240 239 238 238 240 241 242 244 246 248 250 252 254 255 256 258 259 260 261 263 266 269 272 275 278 281 284 286 288 289 291 293 294 295 296 296 295 294 294 293
247 242 239 238 237 236 236 238 239 240 242 244 247 249 251 253 255 256 257 259 260 262 264 267 270 274 277 279 282 285 287 289 291 293 294 296 297 297 297 296 296 295 295
245 242 238 236 235 235 235 236 238 239 240 243 246 248 250 253 255 257 258 259 261 263 266 269 272 275 278 281 284 286 288 290 292 294 296 297 298 298 298 298 297 297 297
242 240 237 234 233 232 233 234 235 236 238 240 243 246 249 252 256 257 258 260 262 265 268 271 274 277 281 283 286 288 290 292 294 296 297 298 299 299 299 299 299 299 299
238 237 235 232 230 230 230 231 232 233 235 238 241 245 248 251 255 257 259 260 263 267 270 274 277 280 283 285 288 290 292 294 296 297 298 299 300 300 300 301 301 301 301
234 232 231 229 228 227 227 228 229 230 232 235 239 243 247 251 255 258 260 262 266 269 273 276 279 282 285 287 290 292 294 296 297 299 300 301 301 301 302 302 303 303 303
231 228 227 225 224 224 225 226 227 229 231 234 238 242 247 251 255 259 262 266 269 273 276 279 282 284 287 289 292 294 296 297 299 300 301 302 302 303 303 304 304 304 304
225 223 222 220 220 220 221 223 224 227 229 233 237 242 247 252 256 261 265 269 272 276 279 281 284 286 289 292 294 296 297 299 300 301 302 303 303 304 305 305 305 305 305
217 215 215 214 214 215 217 219 222 225 228 233 237 242 248 253 258 263 267 271 275 278 281 283 286 289 291 294 295 297 299 300 301 302 303 304 305 305 306 306 306 306 306
210 207 206 207 208 210 213 216 219 223 228 233 238 244 249 255 260 265 269 273 277 279 282 285 288 291 293 295 297 299 300 302 303 304 305 306 306 306 307 307 307 307 307
201 198 198 199 202 205 209 214 218 222 227 233 239 245 252 257 262 267 271 274 277 281 284 288 290 293 295 297 299 301 302 303 304 305 306 307 307 308 308 308 308 308 308
187 186 188 192 196 201 207 212 217 222 228 235 241 248 254 259 264 268 271 275 279 283 287 290 292 295 297 299 301 302 304 304 305 306 307 307 308 308 308 309 309 309 310
170 174 180 187 193 199 205 211 217 223 230 237 244 250 255 260 265 269 273 278 283 286 290 292 295 297 299 301 302 304 305 306 307 307 308 308 308 309 309 309 310 311 310
160 168 176 184 192 199 205 211 218 225 232 239 246 252 257 262 266 272 277 282 286 289 292 294 297 299 301 302 304 305 306 307 308 309 309 309 310 310 310 311 311 311 310
153 163 173 181 190 198 206 214 221 228 235 241 247 253 259 265 271 277 282 286 289 292 295 297 299 301 302 304 305 306 308 309 309 309 310 310 310 311 311 312 312 312 311
150 160 172 182 192 200 208 215 222 230 237 244 251 259 266 272 278 282 286 289 292 295 298 299 301 302 304 305 307 308 309 310 310 311 311 312 312 312 313 313 314 313 311
153 162 172 182 191 200 209 218 227 236 245 253 261 268 274 278 283 286 290 293 295 297 299 301 303 304 306 307 309 310 311 312 312 312 313 313 313 313 313 314 314 313 311
161 169 178 187 197 207 218 229 239 249 257 264 271 276 280 284 288 291 293 296 298 300 301 303 305 307 309 310 311 312 312 313 313 314 313 313 313 314 314 314 314 313 312
167 177 188 199 212 225 236 246 255 263 269 275 279 283 286 289 292 295 296 298 300 302 304 306 308 309 311 312 312 313 313 314 314 314 313 314 314 314 314 315 315 315 314
191 200 211 223 234 245 254 262 269 274 278 282 286 289 292 294 296 298 300 301 303 305 307 309 310 312 312 312 313 314 314 315 315 314 314 314 315 315 316 317 318 319 318
229 235 241 249 256 262 268 274 279 284 287 290 292 294 296 297 299 301 302 304 306 308 310 311 312 313 313 314 315 316 316 316 316 315 316 316 317 319 320 322 323 323 323
242 247 255 263 271 278 283 287 291 293 295 296 297 298 300 301 302 304 306 307 309 311 312 313 314 315 315 317 317 318 318 317 317 317 318 318 320 322 324 325 325 326 326
Height
5732 5734 5737 5740 5743 5746 5748 5750 5752 5754 5756 5757 5759 5761 5762 5763 5764 5764 5764 5764 5764 5764 5764 5764 5763 5762 5761 5760 5758 5756 5754 5752 5749 5746 5743 5740 5737 5733 5729 5726 5722 5718 5714
5720 5723 5726 5729 5733 5736 5739 5741 5744 5746 5748 5750 5751 5753 5754 5755 5756 5756 5757 5757 5757 5757 5757 5756 5755 5754 5753 5752 5750 5748 5746 5743 5740 5737 5734 5730 5728 5723 5719 5714 5710 5706 5702
5707 5710 5714 5718 5722 5726 5730 5733 5735 5738 5740 5742 5744 5745 5747 5747 5748 5749 5749 5749 5749 5749 5749 5748 5748 5746 5745 5744 5742 5740 5737 5734 5731 5728 5725 5721 5717 5714 5710 5704 5698 5693 5688
5693 5697 5701 5706 5711 5716 5720 5723 5726 5729 5731 5734 5736 5737 5739 5740 5741 5741 5741 5742 5742 5742 5741 5740 5739 5738 5737 5735 5733 5730 5727 5724 5721 5718 5714 5710 5706 5702 5700 5696 5689 5683 5677
5679 5684 5688 5694 5699 5703 5708 5712 5716 5720 5723 5725 5727 5729 5732 5733 5733 5733 5734 5734 5734 5734 5733 5732 5731 5729 5728 5726 5723 5720 5717 5714 5710 5706 5703 5698 5694 5689 5685 5682 5678 5672 5666
5664 5670 5675 5681 5686 5692 5697 5701 5706 5710 5714 5717 5719 5722 5724 5725 5725 5725 5726 5726 5726 5726 5725 5724 5722 5721 5719 5716 5714 5710 5707 5703 5699 5695 5690 5686 5681 5676 5670 5666 5662 5657 5652
5649 5655 5662 5668 5675 5681 5687 5692 5697 5701 5705 5708 5711 5714 5716 5717 5717 5718 5718 5719 5718 5718 5717 5715 5713 5711 5709 5706 5703 5700 5696 5692 5688 5683 5678 5673 5668 5662 5656 5650 5645 5640 5634
5634 5641 5648 5656 5663 5669 5676 5682 5687 5692 5696 5700 5703 5706 5708 5709 5710 5711 5711 5711 5710 5709 5708 5706 5704 5702 5699 5696 5693 5689 5685 5681 5676 5671 5665 5660 5654 5647 5641 5634 5627 5622 5617
5619 5627 5635 5643 5650 5658 5665 5672 5678 5683 5687 5691 5695 5698 5700 5702 5703 5703 5703 5703 5702 5701 5699 5698 5695 5693 5690 5686 5683 5678 5674 5669 5664 5658 5652 5646 5639 5632 5625 5617 5610 5602 5597
5603 5611 5620 5630 5638 5647 5655 5662 5668 5673 5678 5683 5686 5690 5692 5694 5695 5696 5696 5695 5694 5692 5691 5688 5686 5683 5680 5676 5672 5667 5662 5657 5651 5645 5639 5632 5624 5617 5609 5601 5592 5583 5575
5588 5597 5607 5617 5627 5636 5645 5653 5659 5665 5670 5675 5679 5682 5685 5687 5688 5688 5688 5687 5685 5684 5682 5679 5677 5673 5670 5666 5661 5656 5651 5645 5639 5632 5625 5617 5609 5600 5592 5583 5575 5565 5556
5574 5584 5595 5606 5617 5627 5636 5644 5651 5657 5662 5667 5672 5675 5677 5679 5680 5680 5680 5679 5677 5675 5673 5670 5667 5663 5659 5655 5650 5645 5639 5632 5625 5618 5610 5602 5593 5584 5575 5565 5556 5546 5536
5562 5573 5585 5597 5609 5619 5628 5636 5643 5650 5656 5661 5665 5668 5670 5672 5672 5672 5672 5670 5669 5666 5664 5661 5657 5653 5649 5644 5639 5633 5626 5619 5612 5603 5595 5586 5577 5567 5558 5548 5537 5526 5515
5553 5565 5578 5590 5602 5612 5622 5630 5637 5644 5649 5654 5658 5661 5663 5664 5665 5665 5663 5662 5660 5658 5655 5651 5647 5643 5638 5633 5627 5621 5613 5605 5597 5588 5579 5570 5560 5550 5540 5530 5518 5506 5493
5550 5561 5574 5587 5598 5608 5617 5625 5632 5638 5644 5649 5652 5655 5657 5657 5657 5657 5655 5654 5651 5649 5645 5642 5637 5632 5627 5621 5615 5608 5600 5591 5582 5573 5564 5554 5544 5533 5522 5510 5497 5482 5467
5552 5563 5575 5586 5596 5606 5614 5621 5628 5634 5639 5643 5646 5649 5650 5650 5650 5649 5647 5645 5643 5640 5636 5632 5627 5622 5616 5609 5602 5594 5586 5577 5568 5558 5549 5539 5528 5516 5504 5490 5474 5457 5441
5558 5567 5577 5587 5596 5604 5612 5619 5625 5630 5635 5638 5641 5642 5643 5643 5642 5641 5639 5637 5634 5630 5626 5622 5616 5610 5604 5596 5589 5580 5572 5562 5553 5543 5533 5522 5510 5497 5484 5469 5453 5435 5416
5566 5573 5581 5589 5597 5604 5611 5617 5623 5627 5631 5633 5635 5636 5636 5636 5635 5633 5631 5628 5625 5621 5616 5611 5605 5598 5591 5583 5575 5567 5558 5548 5538 5527 5516 5504 5490 5475 5461 5447 5432 5415 5398
5573 5579 5586 5592 5599 5605 5610 5616 5620 5624 5626 5628 5629 5629 5629 5628 5627 5625 5623 5619 5616 5611 5606 5600 5593 5586 5578 5570 5562 5553 5544 5535 5524 5512 5498 5484 5470 5454 5439 5425 5411 5396 5382
5579 5584 5589 5594 5600 5605 5609 5613 5617 5619 5621 5622 5623 5623 5622 5621 5620 5617 5614 5610 5606 5601 5595 5589 5582 5574 5566 5558 5549 5539 5530 5521 5509 5495 5479 5463 5447 5431 5415 5402 5391 5380 5370
5584 5588 5592 5596 5600 5604 5608 5611 5613 5615 5616 5617 5617 5617 5616 5614 5612 5609 5605 5601 5596 5591 5584 5577 5570 5562 5554 5545 5535 5524 5513 5501 5489 5474 5459 5442 5426 5411 5397 5385 5375 5367 5359
5588 5591 5594 5597 5600 5603 5606 5608 5609 5611 5611 5611 5611 5610 5609 5607 5604 5600 5596 5591 5586 5580 5573 5565 5557 5549 5540 5531 5521 5509 5496 5482 5469 5454 5438 5422 5408 5395 5383 5373 5364 5357 5350
5590 5593 5595 5597 5600 5602 5603 5605 5606 5606 5606 5606 5605 5604 5602 5599 5595 5591 5586 5581 5575 5569 5562 5554 5546 5537 5528 5517 5506 5494 5479 5464 5449 5433 5418 5403 5391 5380 5371 5363 5356 5349 5342
5591 5593 5595 5597 5598 5600 5601 5602 5602 5602 5602 5601 5599 5597 5594 5590 5586 5582 5576 5571 5564 5558 5551 5543 5535 5526 5515 5504 5492 5478 5463 5448 5431 5416 5402 5389 5378 5370 5363 5356 5349 5342 5336
5592 5593 5594 5596 5597 5597 5598 5598 5598 5597 5596 5594 5592 5589 5586 5582 5577 5572 5566 5560 5554 5547 5540 5532 5523 5513 5502 5488 5474 5459 5444 5428 5413 5399 5387 5377 5369 5362 5355 5349 5343 5336 5329
5592 5592 5593 5594 5594 5595 5595 5594 5593 5592 5590 5587 5585 5581 5577 5573 5568 5563 5557 5550 5544 5536 5528 5519 5509 5497 5484 5470 5456 5440 5423 5408 5396 5385 5376 5369 5362 5356 5350 5344 5337 5331 5324